Showing default

HELLAS-SAT 3, 42814

Orbit data source: Space-Track

HELLAS-SAT 3, 42814 is a payload satellite owned by HellasSat (ESA) in GEO that was launched on Wed, 28 Jun 2017 UTC via an ARIANE 5ECA launch vehicle from the French Guiana (FRGUI). Payload-class satellites include a variety of spacecraft equipped with specific instruments for various scientific and technological missions. These include communications satellites like Starlink; space stations such as the ISS; scientific satellites like the Hubble; Earth observation satellites from companies like Planet Labs, Umbra, and HawkEye 360; GPS; miniature CubeSats for education and research; and military/defense satellites.

Not visible in the next 10 days
Identifier
42814, 2017-040A
Orbit
GEO
Country
Flag of ESAESA
Related business
Manufacturer
Thales Alenia
Mission
Operational Commercial Communications
Bus & Motor
SPACEBUS 4000C4, S400
Mass
5,780 kg wet, ~2,500 kg dry
Launch date (UTC)
2017-06-28 (9 years ago)
Launch vehicle
ARIANE 5ECA
Launch site
French Guiana (FRGUI)
Object type
Payload
Rocket body
Debris
Shape & HBR
Box + 2 Pan, 18.5 m
Radar Cross Section
31.794 m², Large (>1 m²)

Expand to show TLE details & history
Last TLE update: 7 hours ago

TLE from 7 hours ago
0 HELLAS-SAT 3
1 42814U 17040A   26071.65079661  .00000153  00000-0  00000+0 0  9995
2 42814   0.0658  45.4788 0005046 320.2101  77.8627  1.00272958 31836
Epoch: 2026-03-12T15:37Z
TLE epoch observation values (Epoch: 2026-03-12T15:37:08.827Z)
Latitude
0.01938°
Longitude
39.04256°
Altitude
35,781.339 km
Speed
3.075 km/s
True Right ascension
05h 34m 30s
True Declination
0° 01' 10"
Sunlit
Object was in daylight at epoch
Visualization orbit readout
Latitude
Unknown
Longitude
Unknown
Altitude
Unknown
Speed
Unknown
Apparent Right ascension
Unknown
Apparent Declination
Unknown
Sunlit
N/A
Visualization observer readout
Local Sidereal Time
02:58:15
Azimuth
Unknown
Elevation
Unknown
Doppler factor
Unknown
Orbital elements
Apogee altitude
35,808.613 km
Perigee altitude
35,766.06 km
Semi-major axis
42,165.474 km
Eccentricity
0.0005
Inclination
0.0658°
RAAN
45.4788°
Arg. of periapsis
320.2101°
True anomaly
77.91924°
Mean anomaly
77.8627°
Eccentric anomaly
77.89097°
Mean motion
0.25067 °/min
Orbital period
1,436.13 mins
BSTAR
0
Loading maneuver chart data...
Computing Atmospheric mass density...
Loading historical data...
Loading historical data...
Loading historical data...
Loading historical data...
Loading historical data...
Loading historical data...
Loading historical data...
Other satellites on launch #40 in the year 2017 (2017-06-28 UTC)

Documentation

Showing up to 5 results
|